Location: Burtsch�tz
(51.0528°N, 12.1764°E)
Time: 06:27:21
(UTC+00:00)

Cosmos 1992 Rocket - Pass Details

Date: 29 October 2020
Orbit: 759 x 766 km, 74.0° (Epoch: 01 December)

Event Time Altitude Azimuth Distance (km) Brightness Sun altitude
Rises 17:32:59 0° 191° (S) 3,207 7.4 -16.6°
Reaches altitude 10° 17:35:22 10° 188° (S) 2,285 6.6 -17.0°
Maximum altitude 17:40:27 60° 109° (ESE) 866 3.9 -17.8°
Enters shadow 17:45:22 11° 31° (NNE) 2,215 6.1 -18.6°
